Cloud_Cover
0 0 0 0 0 5 5 1 0 0 2 9 49 1 5 19 91 30 95 100 100 100 91 5 4 4 21 15 5 5 5 8 20 46 59 5 5 4 5 5 5 91 100 100
0 0 0 0 0 0 0 0 0 0 0 4 5 0 0 2 0 3 46 44 100 100 100 97 5 42 5 3 9 100 85 5 4 100 100 64 6 28 5 28 96 10 10 85
0 0 0 0 0 0 0 0 0 0 0 0 0 0 0 0 0 0 0 1 41 92 100 90 15 11 17 2 4 7 31 19 7 33 71 23 84 100 52 34 5 31 62 57
0 0 0 0 0 0 0 0 0 0 0 0 0 0 0 0 0 0 0 0 1 5 97 5 51 100 50 80 61 64 13 30 5 36 70 72 43 7 5 5 76 100 96 42
0 0 0 0 0 0 0 0 0 0 0 0 0 0 0 0 0 0 0 0 0 21 2 0 2 80 100 100 89 69 18 99 20 48 100 100 93 5 5 42 100 100 100 97
0 0 0 0 0 0 0 0 0 0 0 0 0 0 0 0 0 0 0 0 0 0 0 0 22 24 5 75 100 64 100 100 86 25 58 73 5 32 2 66 90 100 100 100
0 0 0 0 0 0 0 0 0 0 0 0 0 0 0 0 0 0 0 0 0 0 0 6 45 41 100 100 92 100 86 33 9 5 3 59 51 55 100 100 100 100 100 100
0 0 0 0 0 0 0 0 0 0 0 0 0 0 0 0 0 0 2 0 0 0 0 0 0 20 100 100 47 100 100 18 54 65 25 7 5 100 100 100 100 100 100 100
0 0 0 0 0 0 0 0 0 0 0 0 0 0 0 0 2 5 5 4 2 0 0 0 0 0 0 83 59 5 27 98 19 5 14 97 100 100 100 100 100 100 100 100
0 0 0 0 0 0 0 0 0 0 0 0 0 0 0 0 2 4 4 0 0 4 4 2 1 0 0 0 18 64 78 42 2 2 75 100 100 100 100 100 100 100 100 100
0 0 0 0 0 0 0 5 3 0 0 0 0 0 0 0 1 4 5 25 3 4 14 17 0 3 3 1 25 100 100 0 12 4 84 100 100 100 100 100 100 100 100 100
0 0 0 0 0 0 0 5 5 0 0 0 2 62 0 2 35 12 5 6 88 47 16 90 5 0 28 89 90 100 100 28 5 62 100 100 100 100 100 100 100 100 98 100
0 0 0 0 0 0 0 0 0 0 2 17 73 79 82 100 100 100 94 6 5 100 100 100 30 5 28 43 98 100 100 100 83 6 100 100 100 100 100 100 100 100 100 100
0 0 0 0 0 0 0 0 2 4 9 15 27 24 100 100 100 100 100 98 16 24 28 70 100 100 100 99 80 88 100 100 89 12 90 100 100 100 100 100 100 100 100 100
0 0 0 0 3 1 6 6 1 3 5 5 5 5 5 12 48 97 100 100 100 100 97 100 100 100 100 100 100 100 86 100 100 5 7 100 100 100 100 100 100 100 100 100
0 0 1 5 5 18 69 7 100 100 100 97 5 5 5 5 6 24 70 100 100 100 100 100 100 100 100 100 76 100 100 100 100 100 62 55 100 100 100 100 100 100 100 100
0 0 5 99 5 8 43 100 89 38 10 48 5 4 4 25 73 12 70 100 100 100 100 100 100 100 100 99 43 36 100 100 100 81 32 50 99 100 100 100 100 100 100 100
5 5 40 81 56 98 91 91 42 99 76 10 0 0 0 2 2 4 5 74 72 100 98 60 13 5 5 5 61 100 100 86 60 76 61 96 100 100 100 100 100 100 100 100
5 5 5 6 51 100 21 27 32 79 93 10 0 4 5 5 5 5 5 5 5 5 8 41 52 61 88 83 100 44 6 47 100 100 27 26 100 100 100 100 100 100 100 100
5 46 73 100 100 100 38 8 98 8 5 5 5 5 5 5 5 5 5 10 29 100 99 31 33 5 10 58 71 97 89 5 5 4 86 79 100 100 100 100 100 100 98 44
15 29 82 100 100 100 86 5 5 16 10 5 9 24 5 45 30 36 98 100 100 100 72 8 7 8 12 0 4 5 7 5 22 5 52 100 100 100 100 100 100 89 91 19
23 72 100 100 92 7 17 10 17 5 5 30 89 8 5 21 8 70 78 86 78 56 68 54 5 12 72 34 7 4 54 62 88 54 100 100 100 100 100 100 100 71 53 25
67 100 100 21 8 27 30 15 30 13 36 7 32 5 0 3 7 5 5 7 7 2 0 0 0 0 5 0 0 0 83 98 100 100 100 100 100 100 100 100 100 80 100 80
100 97 42 77 5 33 36 42 10 89 86 13 7 1 1 1 5 5 5 5 5 5 5 4 0 0 0 2 4 14 100 100 100 100 100 100 100 100 100 100 100 77 89 5
75 23 46 25 39 82 26 5 5 97 84 21 5 4 2 4 0 0 4 5 5 0 0 0 0 0 5 10 27 99 100 100 100 100 100 100 100 100 100 100 100 63 8 14
16 5 54 65 70 98 57 67 56 75 13 5 4 2 5 0 0 0 0 0 0 1 5 1 5 5 12 99 100 100 100 100 100 100 100 100 100 100 100 100 100 73 18 68